Flag for Germany Weather past 2 weeks in Datteln, North Rhine-Westphalia, Germany

Now
84 °F

Passing clouds.


Feels Like: 82 °F
Forecast: 58 / 63 °F
Wind: 9 mph from Southwest

Location: Dortmund / Wickede

Current Time: Jul 7, 2015 at 1:18:28 PM

Latest Report: Jul 7, 2015 at 12:50 PM


Visibility: N/A

Pressure: 29.83 "Hg

Humidity: 31%

Dew point: 50 °F

Location of DattelnLocation

Historic Weather in Datteln — Graph

°F

Datteln temperature yesterday

Maximum temperature yesterday: 75 °F (at 4:20 PM)
Minimum temperature yesterday: 59 °F (at 5:20 AM)
Average temperature yesterday: 67 °F

Past Weeks' High & Low Weather Summary

 TemperatureHumidityPressure
High97 °F (Jul 2, 2:50 PM)94% (Jun 23, 5:50 AM)30.24 "Hg (Jun 23, 5:50 AM)
Low48 °F (Jun 23, 5:20 AM)22% (Jul 2, 3:20 PM)29.68 "Hg (Jun 22, 7:50 PM)
Average70 °F57%30.07 "Hg
* Reported Jun 22 12:20 PM — Jul 7 12:20 PM, Datteln, Weather by CustomWeather, © 2015

Note: Actual official high and low records may vary slightly from our data, if they occured in-between our weather recording intervals... More about our weather records

Advertising

Datteln weather history for previous 24 hours

 ConditionsComfort  
Time TempWeatherWind HumidityBarometerVisibility
12:20 PM
Tue, Jul 7
84 °FPassing clouds.10 mph33%29.83 "HgN/A
11:50 AM82 °FPassing clouds.12 mph32%29.83 "HgN/A
11:20 AM82 °FPassing clouds.10 mph32%29.86 "HgN/A
10:50 AM81 °FPassing clouds.9 mph34%29.86 "HgN/A
10:20 AM77 °FPassing clouds.7 mph39%29.86 "HgN/A
9:50 AM77 °FSunny.9 mph44%29.89 "Hg10 mi
9:20 AM73 °FPassing clouds.6 mph44%29.89 "HgN/A
8:50 AM72 °FPassing clouds.6 mph47%29.92 "HgN/A
8:20 AM68 °FSunny.7 mph53%29.92 "Hg10 mi
7:50 AM66 °FSunny.3 mph56%29.92 "Hg10 mi
7:20 AM64 °FSunny.2 mph64%29.95 "Hg10 mi
6:50 AM63 °FSunny.7 mph59%29.95 "Hg10 mi
6:20 AM59 °FSunny.3 mph72%29.95 "Hg10 mi
5:50 AM59 °FClear.7 mph68%29.98 "Hg10 mi
5:20 AM59 °FClear.8 mph72%29.98 "Hg10 mi
10:50 PM
Mon, Jul 6
63 °FClear.6 mph64%30.07 "Hg10 mi
10:20 PM59 °FSunny.3 mph68%30.07 "Hg10 mi
9:50 PM66 °FSunny.2 mph56%30.07 "Hg10 mi
9:20 PM64 °FSunny.3 mph60%30.07 "Hg10 mi
8:50 PM72 °FSunny.3 mph44%30.07 "Hg10 mi
8:20 PM73 °FPassing clouds.5 mph41%30.09 "HgN/A
7:50 PM73 °FPassing clouds.5 mph38%30.09 "HgN/A
7:20 PM73 °FPassing clouds.7 mph41%30.09 "HgN/A
6:50 PM75 °FPassing clouds.8 mph36%30.09 "HgN/A
6:20 PM75 °FPassing clouds.9 mph39%30.09 "HgN/A
5:50 PM75 °FPassing clouds.9 mph36%30.12 "HgN/A
5:20 PM73 °FSunny.10 mph41%30.12 "Hg10 mi
4:50 PM73 °FPassing clouds.8 mph38%30.12 "HgN/A
4:20 PM75 °FPassing clouds.10 mph39%30.12 "HgN/A
3:50 PM73 °FPassing clouds.10 mph41%30.15 "HgN/A
3:20 PM73 °FPassing clouds.9 mph38%30.15 "HgN/A
2:50 PM72 °FPassing clouds.9 mph44%30.15 "HgN/A
2:20 PM70 °FScattered clouds.8 mph46%30.15 "HgN/A
1:50 PM72 °FScattered clouds.13 mph47%30.15 "HgN/A
1:20 PM70 °FScattered clouds.13 mph46%30.15 "HgN/A
Weather by CustomWeather, © 2015

See weather overviewHow to use our weather pages